Hourly Data Report for February 04, 2002

SHERBROOKE A
QUEBEC

45°26'00.000" N
71°41'00.000" W
241.40 m
7028124
71610
YSC

Download Data

Hourly Data (February 2002)
Hourly Data Report for February 4, 2002
TIME
LST
Temp Definition
°C
Dew Point Definition
°C
Rel Hum Definition
%
Precip. Amount Definition
mm

Wind Dir Definition
10's deg

Wind Spd Definition
km/h
Visibility Definition
km
Stn Press Definition
kPa
Hmdx Definition


Wind Chill Definition


Weather Definition


00:00 -4.8 -7.7 80   8 4 5.6 97.88   -7 Snow
01:00 -3.8 -6.7 80   17 7 6.4 97.79   -7 Snow
02:00 -3.5 -6.9 77   19 7 15.0 97.75   -6  
03:00 -3.8 -7.7 74   19 7 15.0 97.71   -7  
04:00 -3.9 -7.6 75   20 6 15.0 97.67   -7  
05:00 -4.7 -7.4 81     0 4.8 97.66     Snow
06:00 -6.1 -8.7 82     0 5.6 97.66     Snow
07:00 -5.7 -8.0 84   32 6 9.7 97.70   -9 Snow
08:00 -4.6 -6.9 84   24 4 12.9 97.74   -6 Snow
09:00 -4.6 -7.0 83   27 11 19.3 97.75   -9 Snow Showers
10:00 -4.7 -7.6 80   29 13 16.1 97.79   -10 Snow Showers
11:00 -4.8 -8.0 78   25 11 16.1 97.82   -9 Snow Showers
12:00 -5.0 -8.5 76   27 13 19.3 97.78   -10 Snow Showers
13:00 -4.5 -8.7 72   29 15 16.1 97.78   -10 Snow Showers
14:00 -5.6 -9.9 72   29 19 16.1 97.79   -12 Snow Showers
15:00 -7.1 -11.4 71   31 13 16.1 97.89   -13 Snow Showers
16:00 -8.2 -12.5 71   31 20 16.1 97.98   -16 Snow Showers
17:00 -8.9 -13.3 70   30 13 12.9 98.08   -15 Snow Showers
18:00 -9.5 -14.0 70   32 9 12.9 98.23   -14 Snow
19:00 -9.5 -14.4 67   31 6 15.0 98.35   -13 Snow
20:00 -10.0 -13.6 75   29 11 3.2 98.41   -16 Snow
21:00 -11.3 -15.1 73   29 11 4.0 98.47   -17 Snow
22:00 -12.0 -15.7 74   29 11 5.6 98.51   -18 Snow
23:00 -12.7 -16.3 74   28 13 3.2 98.54   -20 Snow

Notes on Data Quality.

Legend

  • E = Estimated
  • M = Missing
  • NA = Not Available*
  • [empty] = Indicates an unobserved value
Date modified: